| time (UTC) | temp C | wind direction | speed KPH | gust KPH | rain 1hr cm | rain 24hr cm | rain mn cm | humidity % | barometer mb |
| 20260510202028 | 25 | 164 | 0.0 | 9.7 | 0.00 | 0.00 | 0.00 | 74 | 1013.2 |
| 20260510201517 | 25 | 164 | 3.2 | 9.7 | 0.00 | 0.00 | 0.00 | 73 | 1013.2 |
| 20260510201019 | 25 | 161 | 1.6 | 4.8 | 0.00 | 0.00 | 0.00 | 74 | 1013.2 |
| 20260510200535 | 25 | 128 | 1.6 | 4.8 | 0.00 | 0.00 | 0.00 | 74 | 1013.2 |
| 20260510200024 | 25 | 128 | 0.0 | 4.8 | 0.00 | 0.00 | 0.00 | 75 | 1013.2 |
| 20260510195526 | 25 | 169 | 1.6 | 8.0 | 0.00 | 0.00 | 0.00 | 75 | 1013.4 |
| 20260510195046 | 25 | 169 | 3.2 | 8.0 | 0.00 | 0.00 | 0.00 | 74 | 1013.4 |
| 20260510194543 | 25 | 289 | 1.6 | 4.8 | 0.00 | 0.00 | 0.00 | 77 | 1013.4 |
| 20260510194030 | 24 | 149 | 1.6 | 6.4 | 0.00 | 0.00 | 0.00 | 76 | 1013.3 |
| 20260510193531 | 24 | 160 | 1.6 | 4.8 | 0.00 | 0.00 | 0.00 | 77 | 1013.3 |
| 20260510193046 | 24 | 157 | 0.0 | 4.8 | 0.00 | 0.00 | 0.00 | 76 | 1013.3 |
| 20260510192530 | 24 | 166 | 0.0 | 4.8 | 0.00 | 0.00 | 0.00 | 76 | 1013.4 |
| 20260510192039 | 24 | 166 | 1.6 | 4.8 | 0.00 | 0.00 | 0.00 | 75 | 1013.4 |
| 20260510191533 | 24 | 166 | 0.0 | 6.4 | 0.00 | 0.00 | 0.00 | 75 | 1013.4 |
| 20260510191016 | 24 | 184 | 0.0 | 4.8 | 0.00 | 0.00 | 0.00 | 77 | 1013.5 |
| 20260510190518 | 24 | 162 | 3.2 | 6.4 | 0.00 | 0.00 | 0.00 | 75 | 1013.5 |
| 20260510190027 | 24 | 162 | 3.2 | 4.8 | 0.00 | 0.00 | 0.00 | 78 | 1013.5 |
| 20260510185518 | 24 | 188 | 1.6 | 4.8 | 0.00 | 0.00 | 0.00 | 78 | 1014.0 |
| 20260510185024 | 23 | 251 | 1.6 | 4.8 | 0.00 | 0.00 | 0.00 | 79 | 1014.0 |
| 20260510184531 | 23 | 167 | 0.0 | 4.8 | 0.00 | 0.00 | 0.00 | 81 | 1014.0 |
| 20260510184050 | 23 | 201 | 1.6 | 9.7 | 0.00 | 0.00 | 0.00 | 80 | 1014.0 |
| 20260510183547 | 23 | 174 | 3.2 | 9.7 | 0.00 | 0.00 | 0.00 | 79 | 1014.0 |
| 20260510183028 | 23 | 150 | 4.8 | 8.0 | 0.00 | 0.00 | 0.00 | 81 | 1014.0 |
| 20260510182540 | 23 | 173 | 1.6 | 6.4 | 0.00 | 0.00 | 0.00 | 79 | 1014.0 |
| 20260510182032 | 23 | 119 | 1.6 | 8.0 | 0.00 | 0.00 | 0.00 | 83 | 1014.0 |
| 20260510181533 | 22 | 222 | 3.2 | 8.0 | 0.00 | 0.00 | 0.00 | 83 | 1014.0 |
| 20260510181015 | 22 | 144 | 3.2 | 6.4 | 0.00 | 0.00 | 0.00 | 83 | 1014.2 |
| 20260510180535 | 22 | 136 | 3.2 | 6.4 | 0.00 | 0.00 | 0.00 | 84 | 1014.2 |
| 20260510180039 | 22 | 140 | 0.0 | 6.4 | 0.00 | 0.00 | 0.00 | 87 | 1014.2 |
| 20260510175533 | 22 | 182 | 3.2 | 6.4 | 0.00 | 0.00 | 0.00 | 88 | 1014.4 |
| 20260510175021 | 21 | 189 | 1.6 | 6.4 | 0.00 | 0.00 | 0.00 | 87 | 1014.4 |
| 20260510174524 | 21 | 184 | 3.2 | 6.4 | 0.00 | 0.00 | 0.00 | 88 | 1014.4 |
| 20260510174032 | 21 | 152 | 1.6 | 4.8 | 0.00 | 0.00 | 0.00 | 88 | 1014.6 |
| 20260510173530 | 21 | 169 | 0.0 | 3.2 | 0.00 | 0.00 | 0.00 | 88 | 1014.6 |
| 20260510173021 | 21 | 169 | 0.0 | 3.2 | 0.00 | 0.00 | 0.00 | 89 | 1014.6 |
| 20260510172527 | 20 | 169 | 0.0 | 3.2 | 0.00 | 0.00 | 0.00 | 89 | 1014.6 |
| 20260510172041 | 20 | 169 | 0.0 | 4.8 | 0.00 | 0.00 | 0.00 | 89 | 1014.6 |
| 20260510171526 | 20 | 169 | 1.6 | 4.8 | 0.00 | 0.00 | 0.00 | 90 | 1014.6 |
| 20260510171058 | 20 | 169 | 1.6 | 3.2 | 0.00 | 0.00 | 0.00 | 91 | 1014.9 |
| 20260510170539 | 20 | 169 | 0.0 | 4.8 | 0.00 | 0.00 | 0.00 | 91 | 1014.9 |
| 20260510170024 | 20 | 169 | 1.6 | 4.8 | 0.00 | 0.00 | 0.00 | 91 | 1014.9 |
| 20260510165518 | 20 | 169 | 1.6 | 3.2 | 0.00 | 0.00 | 0.00 | 92 | 1015.0 |
| 20260510165027 | 20 | 169 | 1.6 | 3.2 | 0.00 | 0.00 | 0.00 | 92 | 1015.0 |
| 20260510164526 | 20 | 169 | 0.0 | 0.0 | 0.00 | 0.00 | 0.00 | 93 | 1015.0 |
| 20260510164021 | 20 | 169 | 0.0 | 4.8 | 0.00 | 0.00 | 0.00 | 92 | 1014.8 |
| 20260510163523 | 20 | 169 | 1.6 | 4.8 | 0.00 | 0.00 | 0.00 | 92 | 1014.8 |
| 20260510163056 | 20 | 157 | 1.6 | 4.8 | 0.00 | 0.00 | 0.00 | 92 | 1014.8 |
| 20260510162550 | 19 | 157 | 0.0 | 4.8 | 0.00 | 0.00 | 0.00 | 93 | 1014.7 |
| 20260510162032 | 19 | 157 | 0.0 | 4.8 | 0.00 | 0.00 | 0.00 | 93 | 1014.7 |
| 20260510161518 | 19 | 157 | 0.0 | 3.2 | 0.00 | 0.00 | 0.00 | 94 | 1014.7 |
| 20260510161024 | 19 | 157 | 0.0 | 4.8 | 0.00 | 0.00 | 0.00 | 94 | 1014.7 |
| 20260510160539 | 19 | 157 | 0.0 | 4.8 | 0.00 | 0.00 | 0.00 | 95 | 1014.7 |
| 20260510160039 | 19 | 157 | 1.6 | 4.8 | 0.00 | 0.00 | 0.00 | 95 | 1014.7 |
| 20260510155538 | 19 | 156 | 0.0 | 1.6 | 0.00 | 0.00 | 0.00 | 95 | 1014.9 |
| 20260510155028 | 19 | 156 | 0.0 | 1.6 | 0.00 | 0.00 | 0.00 | 95 | 1014.9 |
| 20260510154529 | 18 | 157 | 0.0 | 1.6 | 0.00 | 0.00 | 0.00 | 96 | 1014.9 |
| 20260510154021 | 18 | 156 | 0.0 | 3.2 | 0.00 | 0.00 | 0.00 | 95 | 1014.9 |
| 20260510153533 | 18 | 156 | 0.0 | 4.8 | 0.00 | 0.00 | 0.00 | 96 | 1014.9 |
| 20260510153019 | 18 | 157 | 1.6 | 4.8 | 0.00 | 0.00 | 0.00 | 96 | 1014.9 |
| 20260510152547 | 18 | 155 | 0.0 | 0.0 | 0.00 | 0.00 | 0.00 | 96 | 1014.8 |
| 20260510152028 | 18 | 155 | 0.0 | 0.0 | 0.00 | 0.00 | 0.00 | 96 | 1014.8 |
| 20260510151519 | 18 | 155 | 0.0 | 0.0 | 0.00 | 0.00 | 0.00 | 97 | 1014.8 |
| 20260510151016 | 18 | 155 | 0.0 | 0.0 | 0.00 | 0.00 | 0.00 | 97 | 1014.7 |
| 20260510150514 | 18 | 155 | 0.0 | 0.0 | 0.00 | 0.00 | 0.00 | 97 | 1014.7 |
| 20260510150038 | 18 | 155 | 0.0 | 0.0 | 0.00 | 0.00 | 0.00 | 97 | 1014.7 |
| 20260510145537 | 18 | 155 | 0.0 | 0.0 | 0.00 | 0.00 | 0.00 | 97 | 1014.7 |
| 20260510145042 | 18 | 155 | 0.0 | 0.0 | 0.00 | 0.00 | 0.00 | 97 | 1014.7 |
| 20260510144544 | 18 | 155 | 0.0 | 0.0 | 0.00 | 0.00 | 0.00 | 97 | 1014.7 |
| 20260510144034 | 18 | 155 | 0.0 | 0.0 | 0.00 | 0.00 | 0.00 | 97 | 1014.7 |
| 20260510143606 | 18 | 155 | 0.0 | 0.0 | 0.00 | 0.00 | 0.00 | 97 | 1014.7 |
| 20260510143045 | 18 | 155 | 0.0 | 0.0 | 0.00 | 0.00 | 0.00 | 97 | 1014.7 |
| 20260510142531 | 18 | 155 | 0.0 | 0.0 | 0.00 | 0.00 | 0.00 | 97 | 1014.8 |
| 20260510142018 | 18 | 155 | 0.0 | 0.0 | 0.00 | 0.00 | 0.00 | 97 | 1014.8 |
| 20260510141517 | 18 | 155 | 0.0 | 0.0 | 0.00 | 0.00 | 0.00 | 97 | 1014.8 |
| 20260510141037 | 18 | 155 | 0.0 | 0.0 | 0.00 | 0.00 | 0.00 | 97 | 1014.6 |
| 20260510140552 | 18 | 155 | 0.0 | 0.0 | 0.00 | 0.00 | 0.00 | 97 | 1014.6 |
| 20260510140032 | 18 | 155 | 0.0 | 0.0 | 0.00 | 0.00 | 0.00 | 97 | 1014.6 |
| 20260510135530 | 18 | 155 | 0.0 | 0.0 | 0.00 | 0.00 | 0.00 | 97 | 1014.6 |
| 20260510135026 | 17 | 155 | 0.0 | 0.0 | 0.00 | 0.00 | 0.00 | 97 | 1014.6 |
| 20260510134526 | 17 | 155 | 0.0 | 0.0 | 0.00 | 0.00 | 0.00 | 97 | 1014.6 |
| 20260510134032 | 17 | 155 | 0.0 | 0.0 | 0.00 | 0.00 | 0.00 | 97 | 1014.5 |
| 20260510133534 | 17 | 155 | 0.0 | 1.6 | 0.00 | 0.00 | 0.00 | 97 | 1014.5 |
| 20260510133036 | 17 | 155 | 0.0 | 0.0 | 0.00 | 0.00 | 0.00 | 97 | 1014.5 |
| 20260510132546 | 18 | 155 | 0.0 | 0.0 | 0.00 | 0.00 | 0.00 | 97 | 1014.4 |
| 20260510132019 | 18 | 155 | 0.0 | 0.0 | 0.00 | 0.00 | 0.00 | 97 | 1014.4 |
| 20260510131526 | 18 | 155 | 0.0 | 0.0 | 0.00 | 0.00 | 0.00 | 97 | 1014.4 |
| 20260510131102 | 17 | 155 | 0.0 | 0.0 | 0.00 | 0.00 | 0.00 | 97 | 1014.3 |
| 20260510130530 | 17 | 155 | 0.0 | 0.0 | 0.00 | 0.00 | 0.00 | 97 | 1014.3 |
| 20260510130020 | 17 | 155 | 0.0 | 0.0 | 0.00 | 0.00 | 0.00 | 97 | 1014.3 |
| 20260510125532 | 17 | 155 | 0.0 | 0.0 | 0.00 | 0.00 | 0.00 | 97 | 1014.1 |
| 20260510125047 | 17 | 155 | 0.0 | 0.0 | 0.00 | 0.00 | 0.00 | 97 | 1014.1 |
| 20260510124534 | 17 | 155 | 0.0 | 0.0 | 0.00 | 0.00 | 0.00 | 97 | 1014.1 |
| 20260510124039 | 17 | 155 | 0.0 | 1.6 | 0.00 | 0.00 | 0.00 | 97 | 1014.0 |
| 20260510123526 | 17 | 155 | 0.0 | 1.6 | 0.00 | 0.00 | 0.00 | 97 | 1014.0 |
| 20260510123033 | 17 | 155 | 0.0 | 0.0 | 0.00 | 0.00 | 0.00 | 97 | 1014.0 |
| 20260510122533 | 17 | 155 | 0.0 | 0.0 | 0.00 | 0.00 | 0.00 | 97 | 1013.8 |
| 20260510122021 | 17 | 155 | 0.0 | 0.0 | 0.00 | 0.00 | 0.00 | 97 | 1013.8 |
| 20260510121538 | 17 | 155 | 0.0 | 1.6 | 0.00 | 0.00 | 0.00 | 97 | 1013.8 |
| 20260510121040 | 17 | 155 | 0.0 | 1.6 | 0.00 | 0.00 | 0.00 | 97 | 1013.4 |
| 20260510120532 | 17 | 155 | 0.0 | 0.0 | 0.00 | 0.00 | 0.00 | 97 | 1013.4 |
| 20260510120020 | 17 | 155 | 0.0 | 0.0 | 0.00 | 0.00 | 0.00 | 97 | 1013.4 |
| 20260510115527 | 17 | 155 | 0.0 | 0.0 | 0.00 | 0.00 | 0.00 | 97 | 1013.3 |
| 20260510115033 | 17 | 155 | 0.0 | 0.0 | 0.00 | 0.00 | 0.00 | 97 | 1013.3 |
| 20260510114537 | 17 | 155 | 0.0 | 0.0 | 0.00 | 0.00 | 0.00 | 97 | 1013.3 |
| 20260510114035 | 17 | 155 | 0.0 | 0.0 | 0.00 | 0.00 | 0.00 | 97 | 1012.9 |
| 20260510113533 | 17 | 155 | 0.0 | 0.0 | 0.00 | 0.00 | 0.00 | 97 | 1012.9 |
| 20260510113051 | 17 | 155 | 0.0 | 0.0 | 0.00 | 0.00 | 0.00 | 97 | 1012.9 |
| 20260510112522 | 17 | 155 | 0.0 | 0.0 | 0.00 | 0.00 | 0.00 | 97 | 1012.4 |
| 20260510112023 | 17 | 155 | 0.0 | 0.0 | 0.00 | 0.00 | 0.00 | 97 | 1012.4 |
| 20260510111528 | 17 | 155 | 0.0 | 0.0 | 0.00 | 0.00 | 0.00 | 97 | 1012.4 |
| 20260510110542 | 17 | 155 | 0.0 | 0.0 | 0.00 | 0.00 | 0.00 | 97 | 1012.3 |
| 20260510110042 | 17 | 155 | 0.0 | 0.0 | 0.00 | 0.00 | 0.00 | 97 | 1012.3 |
| 20260510105554 | 17 | 155 | 0.0 | 0.0 | 0.00 | 0.00 | 0.00 | 97 | 1012.0 |
| 20260510105054 | 17 | 155 | 0.0 | 0.0 | 0.00 | 0.00 | 0.00 | 97 | 1012.0 |
| 20260510104535 | 17 | 155 | 0.0 | 0.0 | 0.00 | 0.00 | 0.00 | 97 | 1012.0 |
| 20260510104021 | 17 | 155 | 0.0 | 0.0 | 0.00 | 0.00 | 0.00 | 97 | 1011.9 |
| 20260510103535 | 17 | 155 | 0.0 | 0.0 | 0.00 | 0.00 | 0.00 | 97 | 1011.9 |
| 20260510103018 | 17 | 155 | 0.0 | 1.6 | 0.00 | 0.00 | 0.00 | 97 | 1011.9 |
| 20260510102527 | 17 | 155 | 0.0 | 1.6 | 0.00 | 0.00 | 0.00 | 97 | 1011.7 |
| 20260510102101 | 17 | 155 | 0.0 | 0.0 | 0.00 | 0.00 | 0.00 | 97 | 1011.7 |
| 20260510101533 | 17 | 155 | 0.0 | 0.0 | 0.00 | 0.00 | 0.00 | 97 | 1011.7 |
| 20260510101033 | 17 | 155 | 0.0 | 0.0 | 0.00 | 0.00 | 0.00 | 97 | 1011.5 |
| 20260510100523 | 17 | 155 | 0.0 | 0.0 | 0.00 | 0.00 | 0.00 | 97 | 1011.5 |
| 20260510100038 | 17 | 155 | 0.0 | 0.0 | 0.00 | 0.03 | 0.00 | 97 | 1011.5 |
| 20260510095517 | 17 | 155 | 0.0 | 0.0 | 0.00 | 0.03 | 0.00 | 97 | 1011.3 |
| 20260510095021 | 17 | 155 | 0.0 | 0.0 | 0.00 | 0.03 | 0.00 | 96 | 1011.3 |
| 20260510094538 | 17 | 155 | 0.0 | 1.6 | 0.00 | 0.03 | 0.00 | 96 | 1011.3 |
| 20260510094032 | 17 | 155 | 0.0 | 1.6 | 0.00 | 0.03 | 0.00 | 96 | 1011.1 |
| 20260510093534 | 17 | 155 | 0.0 | 1.6 | 0.00 | 0.03 | 0.00 | 97 | 1011.1 |
| 20260510093015 | 17 | 155 | 0.0 | 0.0 | 0.00 | 0.03 | 0.00 | 97 | 1011.1 |
| 20260510092535 | 17 | 155 | 0.0 | 0.0 | 0.00 | 0.03 | 0.00 | 97 | 1010.8 |
| 20260510092018 | 17 | 155 | 0.0 | 0.0 | 0.00 | 0.03 | 0.00 | 97 | 1010.8 |
| 20260510091518 | 17 | 155 | 0.0 | 1.6 | 0.00 | 0.03 | 0.00 | 97 | 1010.8 |
| 20260510091034 | 17 | 155 | 0.0 | 0.0 | 0.00 | 0.03 | 0.00 | 97 | 1010.7 |
| 20260510090520 | 17 | 155 | 0.0 | 0.0 | 0.00 | 0.03 | 0.00 | 97 | 1010.7 |
| 20260510090027 | 17 | 155 | 0.0 | 0.0 | 0.00 | 0.08 | 0.00 | 97 | 1010.7 |
| 20260510085533 | 17 | 155 | 0.0 | 0.0 | 0.00 | 0.08 | 0.00 | 97 | 1010.5 |
| 20260510085049 | 17 | 155 | 0.0 | 0.0 | 0.00 | 0.08 | 0.00 | 97 | 1010.5 |
| 20260510084534 | 17 | 155 | 0.0 | 1.6 | 0.00 | 0.08 | 0.00 | 96 | 1010.5 |
| 20260510084018 | 17 | 155 | 0.0 | 1.6 | 0.00 | 0.08 | 0.00 | 96 | 1010.3 |
| 20260510083534 | 17 | 155 | 0.0 | 0.0 | 0.00 | 0.08 | 0.00 | 96 | 1010.3 |
| 20260510083035 | 17 | 155 | 0.0 | 0.0 | 0.00 | 0.08 | 0.00 | 96 | 1010.3 |
| 20260510082535 | 17 | 155 | 0.0 | 1.6 | 0.00 | 0.08 | 0.00 | 96 | 1010.4 |
| 20260510081518 | 17 | 155 | 0.0 | 1.6 | 0.00 | 0.08 | 0.00 | 96 | 1010.4 |
| 20260510081016 | 17 | 155 | 0.0 | 1.6 | 0.00 | 0.08 | 0.00 | 96 | 1010.3 |
| 20260510080533 | 17 | 155 | 0.0 | 0.0 | 0.00 | 0.08 | 0.00 | 96 | 1010.3 |
| 20260510080021 | 17 | 155 | 0.0 | 0.0 | 0.00 | 0.08 | 0.00 | 96 | 1010.3 |
| 20260510075529 | 17 | 155 | 0.0 | 0.0 | 0.00 | 0.08 | 0.00 | 96 | 1010.3 |
| 20260510075037 | 17 | 155 | 0.0 | 0.0 | 0.00 | 0.08 | 0.00 | 96 | 1010.3 |
| 20260510074522 | 17 | 155 | 0.0 | 0.0 | 0.00 | 0.08 | 0.00 | 96 | 1010.3 |
| 20260510074028 | 17 | 155 | 0.0 | 0.0 | 0.00 | 0.08 | 0.00 | 96 | 1010.3 |
| 20260510073532 | 17 | 155 | 0.0 | 0.0 | 0.00 | 0.08 | 0.00 | 96 | 1010.3 |
| 20260510072532 | 17 | 155 | 0.0 | 1.6 | 0.00 | 0.08 | 0.00 | 96 | 1010.4 |
| 20260510072043 | 17 | 155 | 0.0 | 0.0 | 0.00 | 0.08 | 0.00 | 96 | 1010.4 |
| 20260510071524 | 17 | 155 | 0.0 | 0.0 | 0.00 | 0.08 | 0.00 | 96 | 1010.4 |
| 20260510071019 | 17 | 155 | 0.0 | 0.0 | 0.00 | 0.08 | 0.00 | 96 | 1010.4 |
| 20260510070527 | 17 | 155 | 0.0 | 0.0 | 0.00 | 0.08 | 0.00 | 96 | 1010.4 |
| 20260510070052 | 17 | 155 | 0.0 | 0.0 | 0.00 | 0.08 | 0.00 | 96 | 1010.4 |
| 20260510065519 | 17 | 155 | 0.0 | 0.0 | 0.00 | 0.08 | 0.00 | 96 | 1010.6 |
| 20260510065038 | 17 | 155 | 0.0 | 0.0 | 0.00 | 0.08 | 0.00 | 96 | 1010.6 |
| 20260510064541 | 17 | 155 | 0.0 | 0.0 | 0.00 | 0.08 | 0.00 | 96 | 1010.6 |
| 20260510064040 | 17 | 155 | 0.0 | 0.0 | 0.00 | 0.08 | 0.00 | 96 | 1010.8 |
| 20260510063526 | 17 | 155 | 0.0 | 0.0 | 0.00 | 0.08 | 0.00 | 96 | 1010.8 |
| 20260510063028 | 17 | 155 | 0.0 | 0.0 | 0.00 | 0.08 | 0.00 | 96 | 1010.8 |
| 20260510062519 | 17 | 155 | 0.0 | 0.0 | 0.00 | 0.08 | 0.00 | 96 | 1010.8 |
| 20260510062034 | 17 | 155 | 0.0 | 0.0 | 0.00 | 0.08 | 0.00 | 96 | 1010.8 |
| 20260510061545 | 17 | 155 | 0.0 | 0.0 | 0.00 | 0.08 | 0.00 | 96 | 1010.8 |
| 20260510061023 | 17 | 155 | 0.0 | 0.0 | 0.00 | 0.08 | 0.00 | 96 | 1010.8 |
| 20260510060519 | 17 | 155 | 0.0 | 0.0 | 0.00 | 0.08 | 0.00 | 96 | 1010.8 |
| 20260510060018 | 17 | 155 | 0.0 | 0.0 | 0.00 | 0.08 | 0.00 | 96 | 1010.8 |
| 20260510055516 | 17 | 155 | 0.0 | 0.0 | 0.00 | 0.08 | 0.00 | 96 | 1010.8 |
| 20260510055015 | 17 | 155 | 0.0 | 0.0 | 0.00 | 0.08 | 0.00 | 96 | 1010.8 |
| 20260510054538 | 17 | 155 | 0.0 | 0.0 | 0.00 | 0.08 | 0.00 | 95 | 1010.8 |
| 20260510054019 | 17 | 155 | 0.0 | 0.0 | 0.00 | 0.08 | 0.00 | 95 | 1010.9 |
| 20260510053553 | 17 | 155 | 0.0 | 0.0 | 0.00 | 0.08 | 0.00 | 95 | 1010.9 |
| 20260510053017 | 17 | 155 | 0.0 | 0.0 | 0.00 | 0.08 | 0.00 | 95 | 1010.9 |
| 20260510052519 | 17 | 155 | 0.0 | 0.0 | 0.00 | 0.08 | 0.00 | 95 | 1010.9 |
| 20260510052026 | 17 | 155 | 0.0 | 0.0 | 0.00 | 0.08 | 0.00 | 95 | 1010.9 |
| 20260510051533 | 17 | 155 | 0.0 | 0.0 | 0.00 | 0.08 | 0.00 | 95 | 1010.9 |
| 20260510051031 | 17 | 155 | 0.0 | 0.0 | 0.00 | 0.08 | 0.00 | 95 | 1011.0 |
| 20260510050538 | 17 | 155 | 0.0 | 0.0 | 0.00 | 0.08 | 0.00 | 95 | 1011.0 |
| 20260510050054 | 17 | 155 | 0.0 | 0.0 | 0.00 | 0.08 | 0.08 | 95 | 1011.0 |
| 20260510045533 | 17 | 155 | 0.0 | 0.0 | 0.00 | 0.08 | 0.08 | 95 | 1011.0 |
| 20260510045034 | 17 | 155 | 0.0 | 0.0 | 0.00 | 0.08 | 0.08 | 95 | 1011.0 |
| 20260510044530 | 17 | 155 | 0.0 | 0.0 | 0.00 | 0.08 | 0.08 | 95 | 1011.0 |
| 20260510044027 | 17 | 155 | 0.0 | 0.0 | 0.00 | 0.08 | 0.08 | 95 | 1010.9 |
| 20260510043522 | 17 | 155 | 0.0 | 0.0 | 0.00 | 0.08 | 0.08 | 94 | 1010.9 |
| 20260510043052 | 17 | 155 | 0.0 | 0.0 | 0.00 | 0.08 | 0.08 | 95 | 1010.9 |
| 20260510042518 | 17 | 155 | 0.0 | 0.0 | 0.00 | 0.08 | 0.08 | 95 | 1011.3 |
| 20260510042038 | 17 | 155 | 0.0 | 0.0 | 0.00 | 0.08 | 0.08 | 95 | 1011.3 |
| 20260510041542 | 17 | 155 | 0.0 | 0.0 | 0.00 | 0.08 | 0.08 | 94 | 1011.3 |
| 20260510041045 | 17 | 155 | 0.0 | 0.0 | 0.00 | 0.08 | 0.08 | 94 | 1011.2 |
| 20260510040518 | 18 | 155 | 0.0 | 0.0 | 0.00 | 0.08 | 0.08 | 94 | 1011.2 |
| 20260510040035 | 18 | 155 | 0.0 | 0.0 | 0.00 | 0.08 | 0.08 | 94 | 1011.2 |
| 20260510035535 | 18 | 155 | 0.0 | 0.0 | 0.00 | 0.08 | 0.08 | 94 | 1011.3 |
| 20260510035033 | 18 | 155 | 0.0 | 0.0 | 0.00 | 0.08 | 0.08 | 94 | 1011.3 |
| 20260510034520 | 18 | 155 | 0.0 | 0.0 | 0.00 | 0.08 | 0.08 | 94 | 1011.3 |
| 20260510034031 | 18 | 155 | 0.0 | 0.0 | 0.00 | 0.08 | 0.08 | 94 | 1011.2 |
| 20260510033523 | 18 | 155 | 0.0 | 0.0 | 0.00 | 0.08 | 0.08 | 94 | 1011.2 |
| 20260510033042 | 18 | 155 | 0.0 | 0.0 | 0.00 | 0.08 | 0.08 | 94 | 1011.2 |
| 20260510032524 | 18 | 155 | 0.0 | 0.0 | 0.00 | 0.08 | 0.08 | 94 | 1011.3 |
| 20260510032027 | 18 | 155 | 0.0 | 0.0 | 0.00 | 0.08 | 0.08 | 94 | 1011.3 |
| 20260510031538 | 18 | 155 | 0.0 | 0.0 | 0.00 | 0.08 | 0.08 | 94 | 1011.3 |
| 20260510031026 | 18 | 155 | 0.0 | 0.0 | 0.00 | 0.08 | 0.08 | 94 | 1010.9 |
| 20260510030530 | 18 | 155 | 0.0 | 0.0 | 0.00 | 0.08 | 0.08 | 94 | 1010.9 |
| 20260510030030 | 18 | 155 | 0.0 | 0.0 | 0.00 | 0.08 | 0.08 | 94 | 1010.9 |
| 20260510025524 | 18 | 155 | 0.0 | 0.0 | 0.00 | 0.08 | 0.08 | 94 | 1011.1 |
| 20260510025031 | 18 | 155 | 0.0 | 0.0 | 0.00 | 0.08 | 0.08 | 94 | 1011.1 |
| 20260510024524 | 18 | 155 | 0.0 | 0.0 | 0.00 | 0.08 | 0.08 | 93 | 1011.1 |
| 20260510023532 | 18 | 155 | 0.0 | 0.0 | 0.00 | 0.08 | 0.08 | 93 | 1010.9 |
| 20260510023016 | 18 | 155 | 0.0 | 0.0 | 0.00 | 0.08 | 0.08 | 93 | 1010.9 |
| 20260510022520 | 19 | 155 | 0.0 | 0.0 | 0.00 | 0.08 | 0.08 | 93 | 1010.8 |
| 20260510022034 | 19 | 155 | 0.0 | 0.0 | 0.00 | 0.08 | 0.08 | 93 | 1010.8 |
| 20260510021538 | 19 | 155 | 0.0 | 0.0 | 0.00 | 0.08 | 0.08 | 93 | 1010.8 |
| 20260510021048 | 19 | 155 | 0.0 | 0.0 | 0.00 | 0.08 | 0.08 | 93 | 1010.5 |
| 20260510020547 | 19 | 155 | 0.0 | 0.0 | 0.00 | 0.08 | 0.08 | 92 | 1010.5 |
| 20260510020045 | 19 | 155 | 0.0 | 0.0 | 0.00 | 0.08 | 0.08 | 92 | 1010.5 |
| 20260510015558 | 19 | 155 | 0.0 | 0.0 | 0.00 | 0.08 | 0.08 | 92 | 1010.3 |
| 20260510014532 | 19 | 155 | 0.0 | 0.0 | 0.00 | 0.08 | 0.08 | 92 | 1010.3 |
| 20260510014051 | 19 | 155 | 0.0 | 0.0 | 0.00 | 0.08 | 0.08 | 92 | 1009.8 |
| 20260510013528 | 19 | 155 | 0.0 | 0.0 | 0.00 | 0.08 | 0.08 | 92 | 1009.8 |
| 20260510013021 | 20 | 155 | 0.0 | 0.0 | 0.00 | 0.08 | 0.08 | 91 | 1009.8 |
| 20260510012524 | 20 | 155 | 0.0 | 0.0 | 0.00 | 0.08 | 0.08 | 91 | 1009.7 |
| 20260510012056 | 20 | 155 | 0.0 | 0.0 | 0.00 | 0.08 | 0.08 | 91 | 1009.7 |
| 20260510011524 | 20 | 155 | 0.0 | 0.0 | 0.00 | 0.08 | 0.08 | 91 | 1009.7 |
| 20260510011021 | 20 | 155 | 0.0 | 0.0 | 0.00 | 0.08 | 0.08 | 91 | 1009.6 |
| 20260510010552 | 20 | 155 | 0.0 | 0.0 | 0.00 | 0.08 | 0.08 | 91 | 1009.6 |
| 20260510010034 | 20 | 155 | 0.0 | 0.0 | 0.00 | 0.08 | 0.08 | 91 | 1009.6 |
| 20260510005550 | 20 | 155 | 0.0 | 0.0 | 0.00 | 0.08 | 0.08 | 91 | 1009.2 |
| 20260510005059 | 20 | 155 | 0.0 | 0.0 | 0.00 | 0.08 | 0.08 | 91 | 1009.2 |
| 20260510004537 | 20 | 155 | 0.0 | 0.0 | 0.00 | 0.08 | 0.08 | 91 | 1009.2 |
| 20260510004020 | 20 | 155 | 0.0 | 0.0 | 0.00 | 0.08 | 0.08 | 91 | 1009.3 |
| 20260510003533 | 20 | 155 | 0.0 | 0.0 | 0.00 | 0.08 | 0.08 | 91 | 1009.3 |
| 20260510003018 | 20 | 155 | 0.0 | 0.0 | 0.00 | 0.08 | 0.08 | 90 | 1009.3 |
| 20260510002024 | 20 | 155 | 0.0 | 0.0 | 0.00 | 0.08 | 0.08 | 90 | 1009.2 |
| 20260510001530 | 20 | 155 | 0.0 | 0.0 | 0.00 | 0.08 | 0.08 | 90 | 1009.2 |
| 20260510001035 | 21 | 155 | 0.0 | 0.0 | 0.00 | 0.08 | 0.08 | 89 | 1009.2 |
| 20260510000518 | 21 | 155 | 0.0 | 1.6 | 0.00 | 0.08 | 0.08 | 89 | 1009.2 |
| 20260510000028 | 21 | 155 | 0.0 | 0.0 | 0.00 | 0.08 | 0.08 | 88 | 1009.2 |
| 20260509235539 | 21 | 155 | 0.0 | 0.0 | 0.00 | 0.08 | 0.08 | 88 | 1008.6 |
| 20260509235023 | 21 | 155 | 0.0 | 0.0 | 0.00 | 0.08 | 0.08 | 88 | 1008.6 |
| 20260509234558 | 21 | 155 | 0.0 | 0.0 | 0.00 | 0.08 | 0.08 | 87 | 1008.6 |
| 20260509234042 | 21 | 155 | 0.0 | 0.0 | 0.00 | 0.08 | 0.08 | 87 | 1008.6 |
| 20260509233543 | 21 | 155 | 0.0 | 0.0 | 0.00 | 0.08 | 0.08 | 87 | 1008.6 |
| 20260509233039 | 21 | 155 | 0.0 | 0.0 | 0.00 | 0.08 | 0.08 | 87 | 1008.6 |
| 20260509232550 | 21 | 155 | 0.0 | 0.0 | 0.00 | 0.08 | 0.08 | 87 | 1008.4 |
| 20260509232037 | 22 | 155 | 0.0 | 0.0 | 0.00 | 0.08 | 0.08 | 87 | 1008.4 |
| 20260509231521 | 22 | 155 | 0.0 | 0.0 | 0.00 | 0.08 | 0.08 | 87 | 1008.4 |
| 20260509231054 | 22 | 155 | 0.0 | 0.0 | 0.00 | 0.08 | 0.08 | 86 | 1008.4 |
| 20260509230516 | 22 | 155 | 0.0 | 0.0 | 0.00 | 0.08 | 0.08 | 86 | 1008.4 |
| 20260509230022 | 22 | 155 | 0.0 | 0.0 | 0.00 | 0.08 | 0.08 | 86 | 1008.4 |
| 20260509225520 | 22 | 155 | 0.0 | 0.0 | 0.00 | 0.08 | 0.08 | 86 | 1008.2 |
| 20260509225026 | 22 | 155 | 0.0 | 0.0 | 0.00 | 0.08 | 0.08 | 85 | 1008.2 |
| 20260509224558 | 22 | 155 | 0.0 | 0.0 | 0.00 | 0.08 | 0.08 | 85 | 1008.2 |
| 20260509224023 | 22 | 155 | 0.0 | 0.0 | 0.00 | 0.08 | 0.08 | 85 | 1008.1 |
| 20260509223555 | 22 | 155 | 0.0 | 0.0 | 0.00 | 0.08 | 0.08 | 85 | 1008.1 |
| 20260509223025 | 22 | 155 | 0.0 | 0.0 | 0.00 | 0.08 | 0.08 | 85 | 1008.1 |
| 20260509222536 | 22 | 155 | 0.0 | 0.0 | 0.00 | 0.08 | 0.08 | 84 | 1008.1 |
| 20260509222025 | 22 | 155 | 0.0 | 0.0 | 0.00 | 0.08 | 0.08 | 84 | 1008.1 |
| 20260509221528 | 22 | 155 | 0.0 | 0.0 | 0.00 | 0.08 | 0.08 | 84 | 1008.1 |
| 20260509221021 | 22 | 155 | 0.0 | 0.0 | 0.00 | 0.08 | 0.08 | 84 | 1008.1 |
| 20260509220516 | 22 | 155 | 0.0 | 1.6 | 0.00 | 0.08 | 0.08 | 83 | 1008.1 |
| 20260509220014 | 22 | 155 | 0.0 | 3.2 | 0.00 | 0.08 | 0.08 | 83 | 1008.1 |
| 20260509215534 | 22 | 155 | 0.0 | 3.2 | 0.00 | 0.08 | 0.08 | 81 | 1007.9 |
| 20260509215028 | 22 | 155 | 0.0 | 3.2 | 0.00 | 0.08 | 0.08 | 82 | 1007.9 |
| 20260509214529 | 22 | 155 | 0.0 | 3.2 | 0.00 | 0.08 | 0.08 | 82 | 1007.9 |
| 20260509214032 | 22 | 155 | 0.0 | 1.6 | 0.00 | 0.08 | 0.08 | 83 | 1007.8 |
| 20260509213522 | 22 | 155 | 0.0 | 1.6 | 0.00 | 0.08 | 0.08 | 83 | 1007.8 |
| 20260509213044 | 22 | 155 | 0.0 | 1.6 | 0.00 | 0.08 | 0.08 | 82 | 1007.8 |
| 20260509212524 | 22 | 155 | 0.0 | 1.6 | 0.00 | 0.08 | 0.08 | 82 | 1007.8 |
| 20260509212024 | 22 | 155 | 0.0 | 3.2 | 0.00 | 0.08 | 0.08 | 82 | 1007.8 |
| 20260509211517 | 22 | 155 | 1.6 | 4.8 | 0.00 | 0.08 | 0.08 | 80 | 1007.8 |
| 20260509211030 | 22 | 155 | 1.6 | 4.8 | 0.00 | 0.08 | 0.08 | 81 | 1007.8 |
| 20260509210529 | 22 | 154 | 1.6 | 3.2 | 0.00 | 0.08 | 0.08 | 80 | 1007.8 |
| 20260509210022 | 23 | 154 | 0.0 | 3.2 | 0.00 | 0.08 | 0.08 | 82 | 1007.8 |
| 20260509205531 | 23 | 154 | 0.0 | 4.8 | 0.00 | 0.08 | 0.08 | 81 | 1007.6 |
| 20260509205044 | 22 | 154 | 1.6 | 4.8 | 0.00 | 0.08 | 0.08 | 80 | 1007.6 |
| 20260509204546 | 23 | 154 | 0.0 | 3.2 | 0.00 | 0.08 | 0.08 | 80 | 1007.6 |
| 20260509204034 | 23 | 153 | 1.6 | 4.8 | 0.00 | 0.08 | 0.08 | 79 | 1007.9 |
| 20260509203536 | 23 | 153 | 1.6 | 4.8 | 0.00 | 0.08 | 0.08 | 79 | 1007.9 |
| 20260509203026 | 23 | 153 | 0.0 | 3.2 | 0.00 | 0.08 | 0.08 | 80 | 1007.9 |
| 20260509202541 | 23 | 153 | 0.0 | 3.2 | 0.00 | 0.08 | 0.08 | 79 | 1007.8 |